{"data":{"norad_id":58928,"intl_designator":"2024-025A","name":"PACE","alt_names":[],"object_type":"PAYLOAD","status":"ACTIVE","operator":null,"country":"US","launch_date":"2024-02-08","launch_site_code":"AFETR","launch_vehicle":null,"mission":null,"orbit_class":"UNKNOWN","rcs_meters":null,"size_class":null,"mass_kg":null,"dimensions":null,"purposes":[],"wikipedia_slug":null,"has_3d_model":false,"image_url":null,"decayed_at":null,"tle_current":{"epoch":"2026-09-22T16:33:29.632320Z","epoch_age_seconds":63196,"freshness":"FRESH","line1":"1 58928U 24025A   26265.68992630  .00000246  00000+0  54068-4 0  9997","line2":"2 58928  98.0968 195.5696 0001396 353.8365   6.2821 14.65610479140217","mean_motion":14.65610479,"eccentricity":0.0001396,"inclination_deg":98.0968,"raan_deg":195.5696,"arg_perigee_deg":353.8365,"mean_anomaly_deg":6.2821,"bstar":5.4068e-5,"rev_number":14021,"period_min":98.252572605958,"perigee_km":674.13144268386,"apogee_km":676.10071094291,"semimajor_km":7053.2530768134,"source":"CELESTRAK","updated_at":"2026-09-23T09:00:19.074408Z"}}}